(473658) = 2015 XB342

Discovered at Mount Lemmon on 2006-12-14 by Mt. Lemmon Survey.

Orbit

Orbit type: Main Belt

Note: WebGL enabled browser required.

epoch2023-09-13.0
epoch JD2460200.5
perihelion date2021-08-20.66801
perihelion JD2459447.16801
argument of perihelion (°)108.71745
ascending node (°)86.19236
inclination (°)13.99400
eccentricity0.1594186
perihelion distance (AU)2.2824932
Tisserand w.r.t. Jupiter3.3
ΔV w.r.t. Earth (km/sec)10.4
semimajor axis (AU)2.7153743
mean anomaly (°)165.93794
mean daily motion (°/day)0.22027200
aphelion distance (AU)3.148
period (years)4.47
P-vector [x]-0.93828477
P-vector [y]-0.32888251
P-vector [z]0.10704201
Q-vector [x]0.24779529
Q-vector [y]-0.85514433
Q-vector [z]-0.45533028
absolute magnitude17.17
phase slope0.15
uncertainty0
referenceMPO 780211
observations used142
oppositions9
arc length (days)6143
first opposition used2006
last opposition used2023
residual rms (arc-secs)0.72
perturbers coarse indicatorM-v
perturbers precise indicator003Ek
first observation date used2006-12-14.0
last observation date used2023-10-09.0
computer nameMPCLINUX
JD of orbit computation2457567.735154
perihelion JD uncertainty (days)2.0122E-04
argument of perihelion uncertainty (°)5.5734E-05
ascending node uncertainty (°)1.5373E-05
inclination uncertainty (°)1.0725E-05
eccentricity uncertainty 1.9958E-07
perihelion distance uncertainty (AU)5.5468E-07
Minimum Orbit Intersection Distances (in AU)
for orbit epoch: 2460200.5, reference: E2023-TC9
Mercury1.86548
Venus1.57779
Earth1.32256
Mars0.76888
Jupiter1.96584
Saturn6.12607
Uranus16.1212
Neptune26.7585

Observations

142 total observations over interval: 2006 12 14.26764 – 2023 10 09.404157
These data are available for download (format description).

